Meteo pe oră la Bolshoe Ogryzkovo

Astăzi, 6 Mai, Joi

Timp Temperatura Precipitaţii Vânt Presiune Umiditate
00:00 +5°C° 0 mm 2 m/s 742 mmHg 97%
01:00 +5°C° 0 mm 2 m/s 742 mmHg 97%
02:00 +6°C° 0 mm 2 m/s 742 mmHg 97%
03:00 +6°C° 0 mm 2 m/s 742 mmHg 96%
04:00 +7°C° 0 mm 3 m/s 741 mmHg 96%
05:00 +8°C° 0 mm 3 m/s 741 mmHg 95%
06:00 +8°C° 0 mm 4 m/s 740 mmHg 91%
07:00 +11°C° 0 mm 4 m/s 740 mmHg 86%
08:00 +12°C° 0 mm 5 m/s 740 mmHg 82%
09:00 +13°C° 0 mm 5 m/s 739 mmHg 77%
10:00 +14°C° 0 mm 6 m/s 739 mmHg 72%
11:00 +16°C° 0 mm 7 m/s 738 mmHg 66%
12:00 +15°C° 0.2 mm 7 m/s 738 mmHg 65%
13:00 +15°C° 0.2 mm 7 m/s 738 mmHg 64%
14:00 +15°C° 0.2 mm 7 m/s 737 mmHg 62%
15:00 +14°C° 0.6 mm 7 m/s 738 mmHg 71%
16:00 +11°C° 0.6 mm 7 m/s 738 mmHg 79%
17:00 +9°C° 0.6 mm 7 m/s 738 mmHg 87%
18:00 +8°C° 0.1 mm 6 m/s 739 mmHg 87%
19:00 +7°C° 0.1 mm 5 m/s 740 mmHg 86%
20:00 +6°C° 0.1 mm 4 m/s 741 mmHg 86%
21:00 +6°C° 0 mm 4 m/s 741 mmHg 88%
22:00 +5°C° 0 mm 4 m/s 741 mmHg 89%
23:00 +5°C° 0 mm 4 m/s 742 mmHg 91%

Mâine, 7 Mai, Vineri

Timp Temperatura Precipitaţii Vânt Presiune Umiditate
00:00 +4°C° 0 mm 4 m/s 742 mmHg 92%
01:00 +4°C° 0 mm 4 m/s 742 mmHg 93%
02:00 +4°C° 0 mm 4 m/s 743 mmHg 93%
03:00 +3°C° 0 mm 4 m/s 743 mmHg 93%
04:00 +3°C° 0 mm 3 m/s 743 mmHg 92%
05:00 +3°C° 0 mm 3 m/s 744 mmHg 91%
06:00 +5°C° 0 mm 4 m/s 744 mmHg 83%
07:00 +6°C° 0 mm 4 m/s 744 mmHg 75%
08:00 +7°C° 0 mm 4 m/s 745 mmHg 66%
09:00 +10°C° 0 mm 4 m/s 745 mmHg 58%
10:00 +10°C° 0 mm 5 m/s 745 mmHg 50%
11:00 +12°C° 0 mm 5 m/s 745 mmHg 41%
12:00 +12°C° 0.1 mm 5 m/s 745 mmHg 47%
13:00 +11°C° 0.1 mm 6 m/s 745 mmHg 53%
14:00 +10°C° 0.1 mm 6 m/s 746 mmHg 59%
15:00 +10°C° 0.1 mm 5 m/s 746 mmHg 60%
16:00 +10°C° 0.1 mm 5 m/s 745 mmHg 62%
17:00 +11°C° 0.1 mm 4 m/s 745 mmHg 63%
18:00 +10°C° 0 mm 3 m/s 746 mmHg 71%
19:00 +8°C° 0 mm 3 m/s 746 mmHg 79%
20:00 +7°C° 0 mm 2 m/s 746 mmHg 87%
21:00 +7°C° 0 mm 2 m/s 746 mmHg 87%
22:00 +7°C° 0 mm 2 m/s 746 mmHg 88%
23:00 +7°C° 0 mm 2 m/s 745 mmHg 88%

Poimâine, 8 Mai, Sâmbătă

Timp Temperatura Precipitaţii Vânt Presiune Umiditate
00:00 +7°C° 0.1 mm 3 m/s 745 mmHg 86%
01:00 +7°C° 0.1 mm 4 m/s 745 mmHg 84%
02:00 +7°C° 0.1 mm 4 m/s 745 mmHg 82%
03:00 +7°C° 0.8 mm 5 m/s 744 mmHg 82%
04:00 +7°C° 0.8 mm 5 m/s 743 mmHg 82%
05:00 +7°C° 0.8 mm 5 m/s 743 mmHg 82%
06:00 +6°C° 1.4 mm 5 m/s 742 mmHg 85%
07:00 +6°C° 1.4 mm 5 m/s 742 mmHg 88%
08:00 +5°C° 1.4 mm 6 m/s 742 mmHg 92%
09:00 +6°C° 0.9 mm 5 m/s 741 mmHg 92%
10:00 +6°C° 0.9 mm 5 m/s 741 mmHg 93%
11:00 +7°C° 0.9 mm 5 m/s 740 mmHg 93%
12:00 +7°C° 0.4 mm 5 m/s 740 mmHg 94%
13:00 +7°C° 0.4 mm 5 m/s 739 mmHg 94%
14:00 +7°C° 0.4 mm 5 m/s 738 mmHg 95%
15:00 +8°C° 0.7 mm 5 m/s 738 mmHg 95%
16:00 +8°C° 0.7 mm 4 m/s 738 mmHg 95%
17:00 +8°C° 0.7 mm 4 m/s 737 mmHg 95%
18:00 +7°C° 0.1 mm 4 m/s 737 mmHg 92%
19:00 +6°C° 0.1 mm 5 m/s 737 mmHg 90%
20:00 +6°C° 0.1 mm 5 m/s 737 mmHg 87%
21:00 +4°C° 0 mm 6 m/s 737 mmHg 89%
22:00 +3°C° 0 mm 6 m/s 737 mmHg 90%
23:00 +3°C° 0 mm 7 m/s 737 mmHg 92%

9 Mai, Duminică

Timp Temperatura Precipitaţii Vânt Presiune Umiditate
00:00 +2°C° 0 mm 7 m/s 738 mmHg 92%
01:00 +2°C° 0 mm 7 m/s 739 mmHg 92%
02:00 +2°C° 0 mm 7 m/s 739 mmHg 93%
03:00 +2°C° 0 mm 7 m/s 740 mmHg 91%
04:00 +2°C° 0 mm 7 m/s 741 mmHg 89%
05:00 +2°C° 0 mm 7 m/s 742 mmHg 87%
06:00 +3°C° 0 mm 7 m/s 743 mmHg 81%
07:00 +3°C° 0 mm 6 m/s 744 mmHg 74%
08:00 +4°C° 0 mm 6 m/s 745 mmHg 68%
09:00 +5°C° 0 mm 6 m/s 746 mmHg 61%
10:00 +8°C° 0 mm 6 m/s 747 mmHg 54%
11:00 +9°C° 0 mm 6 m/s 748 mmHg 46%
12:00 +9°C° 0 mm 6 m/s 749 mmHg 46%
13:00 +9°C° 0 mm 5 m/s 750 mmHg 46%
14:00 +10°C° 0 mm 5 m/s 750 mmHg 46%
15:00 +11°C° 0 mm 4 m/s 751 mmHg 48%
16:00 +11°C° 0 mm 4 m/s 752 mmHg 49%
17:00 +10°C° 0 mm 3 m/s 752 mmHg 50%
18:00 +9°C° 0 mm 3 m/s 753 mmHg 58%
19:00 +7°C° 0 mm 2 m/s 754 mmHg 65%
20:00 +5°C° 0 mm 2 m/s 754 mmHg 73%
21:00 +5°C° 0 mm 2 m/s 755 mmHg 74%
22:00 +5°C° 0 mm 1 m/s 755 mmHg 75%
23:00 +5°C° 0 mm 1 m/s 756 mmHg 76%

10 Mai, Luni

Timp Temperatura Precipitaţii Vânt Presiune Umiditate
00:00 +4°C° 0 mm 1 m/s 756 mmHg 76%
01:00 +3°C° 0 mm 2 m/s 757 mmHg 76%
02:00 +3°C° 0 mm 2 m/s 757 mmHg 77%
03:00 +3°C° 0 mm 2 m/s 758 mmHg 76%
04:00 +4°C° 0 mm 2 m/s 758 mmHg 75%
05:00 +4°C° 0 mm 2 m/s 758 mmHg 74%
06:00 +6°C° 0 mm 2 m/s 758 mmHg 66%
07:00 +9°C° 0 mm 2 m/s 759 mmHg 59%
08:00 +12°C° 0 mm 2 m/s 759 mmHg 51%
09:00 +12°C° 0 mm 3 m/s 759 mmHg 48%
10:00 +13°C° 0 mm 3 m/s 759 mmHg 44%
11:00 +14°C° 0 mm 3 m/s 759 mmHg 40%
12:00 +16°C° 0 mm 3 m/s 759 mmHg 40%
13:00 +16°C° 0 mm 3 m/s 759 mmHg 40%
14:00 +17°C° 0 mm 3 m/s 759 mmHg 40%
15:00 +17°C° 0 mm 3 m/s 759 mmHg 44%
16:00 +16°C° 0 mm 2 m/s 758 mmHg 48%
17:00 +16°C° 0 mm 2 m/s 758 mmHg 52%
18:00 +14°C° 0 mm 2 m/s 758 mmHg 60%
19:00 +12°C° 0 mm 1 m/s 759 mmHg 67%
20:00 +10°C° 0 mm 1 m/s 759 mmHg 74%
21:00 +10°C° 0 mm 1 m/s 759 mmHg 75%
22:00 +8°C° 0 mm 2 m/s 759 mmHg 77%
23:00 +7°C° 0 mm 2 m/s 759 mmHg 78%

11 Mai, Marţi

Timp Temperatura Precipitaţii Vânt Presiune Umiditate
00:00 +7°C° 0 mm 2 m/s 759 mmHg 78%
01:00 +7°C° 0 mm 2 m/s 759 mmHg 78%
02:00 +6°C° 0 mm 2 m/s 759 mmHg 79%
03:00 +6°C° 0 mm 2 m/s 759 mmHg 77%
04:00 +7°C° 0 mm 2 m/s 760 mmHg 76%
05:00 +8°C° 0 mm 1 m/s 760 mmHg 75%
06:00 +9°C° 0 mm 2 m/s 760 mmHg 66%
07:00 +13°C° 0 mm 2 m/s 760 mmHg 58%
08:00 +15°C° 0 mm 2 m/s 760 mmHg 50%
09:00 +16°C° 0 mm 2 m/s 759 mmHg 46%
10:00 +19°C° 0 mm 1 m/s 759 mmHg 41%
11:00 +20°C° 0 mm 1 m/s 759 mmHg 37%
12:00 +20°C° 0 mm 2 m/s 759 mmHg 35%
13:00 +20°C° 0 mm 2 m/s 759 mmHg 34%
14:00 +21°C° 0 mm 2 m/s 758 mmHg 33%
15:00 +20°C° 0 mm 2 m/s 758 mmHg 39%
16:00 +21°C° 0 mm 1 m/s 758 mmHg 44%
17:00 +21°C° 0 mm 1 m/s 758 mmHg 50%
18:00 +19°C° 0 mm 1 m/s 758 mmHg 57%
19:00 +16°C° 0 mm 1 m/s 758 mmHg 64%
20:00 +14°C° 0 mm 1 m/s 758 mmHg 70%
21:00 +13°C° 0 mm 1 m/s 758 mmHg 75%
22:00 +13°C° 0 mm 1 m/s 758 mmHg 79%
23:00 +12°C° 0 mm 1 m/s 758 mmHg 83%
Arată mai mult

Formular de consimțământ

Meteoprog și furnizorii noștri de servicii pot stoca și accesa date personale, precum cookies, identificatori de dispozitiv sau alte tehnologii similare pe dispozitivul dumneavoastră și procesa astfel de date pentru a personaliza conținutul și reclamele, dar și pentru a oferi caracteristici de social media și pentru a analiza traficul.

  • Stocarea și/sau accesarea informațiilor pe dispozitivul dumneavoastră

    Cookies, identificatori de dispozitiv sau alte informații pot fi stocate sau accesate pe dispozitiv în scopurile indicate mai sus.

  • Reclame și conținut personalizat, evaluarea reclamelor și a conținutului, informații despre audiențe și dezvoltarea produselor

    Reclamele și conținutul pot fi personalizate pe baza unui profil. Pot fi adăugate date suplimentare pentru a personaliza mai bine reclamele și conținutul. Performanța reclamelor și conținutului poate fi măsurată. Pot fi obținute informații despre utilizatorii care au văzut reclamele și conținutul. Aceste date pot fi utilizate pentru a dezvolta sau îmbunătăți experiența utilizatorilor, sistemele și software-ul.

Dând clic pe ‘Sunt de acord’, permiteți utilizarea cookie-urilor menționate, a identificatorilor de dispozitiv, balizelor web sau altor tehnologii similare. Setările pot fi modificate din browser-ul dispozitivului dumneavoastră.

În anumite scopuri, interesele legitime pot prima asupra consimțământului. Puteți citi mai multe informații în acest sens în Politica privind Confidențialitatea Datelor și Cookie.